site,time,unit,value
Arley,10/11/2023 00:00:00,MW,1.4921621
Arley,10/11/2023 00:05:00,MW,1.4631023
Arley,10/11/2023 00:10:00,MW,1.4564416
Arley,10/11/2023 00:15:00,MW,1.4718807
Arley,10/11/2023 00:20:00,MW,1.472605
Arley,10/11/2023 00:25:00,MW,1.4567344
Arley,10/11/2023 00:30:00,MW,1.4715651
Arley,10/11/2023 00:35:00,MW,1.4826257
Arley,10/11/2023 00:40:00,MW,1.487389
Arley,10/11/2023 00:45:00,MW,1.4773817
Arley,10/11/2023 00:50:00,MW,1.4445765
Arley,10/11/2023 00:55:00,MW,1.4773635
Arley,10/11/2023 01:00:00,MW,1.4761945
Arley,10/11/2023 01:05:00,MW,1.4646318
Arley,10/11/2023 01:10:00,MW,1.4745997
Arley,10/11/2023 01:15:00,MW,1.4763755
Arley,10/11/2023 01:20:00,MW,1.4785306
Arley,10/11/2023 01:25:00,MW,1.4699734
Arley,10/11/2023 01:30:00,MW,1.4752233
Arley,10/11/2023 01:35:00,MW,1.5280399
Arley,10/11/2023 01:40:00,MW,1.5354434
Arley,10/11/2023 01:45:00,MW,1.5172219
Arley,10/11/2023 01:50:00,MW,1.504052
Arley,10/11/2023 01:55:00,MW,1.5087758
Arley,10/11/2023 02:00:00,MW,1.5168839
Arley,10/11/2023 02:05:00,MW,1.5128629
Arley,10/11/2023 02:10:00,MW,1.5151657
Arley,10/11/2023 02:15:00,MW,1.5067861
Arley,10/11/2023 02:20:00,MW,1.4779322
Arley,10/11/2023 02:25:00,MW,1.5024195
Arley,10/11/2023 02:30:00,MW,1.4981198
Arley,10/11/2023 02:35:00,MW,1.47917
Arley,10/11/2023 02:40:00,MW,1.4590756
Arley,10/11/2023 02:45:00,MW,1.4499905
Arley,10/11/2023 02:50:00,MW,1.449419
Arley,10/11/2023 02:55:00,MW,1.4050229
Arley,10/11/2023 03:00:00,MW,1.4091303
Arley,10/11/2023 03:05:00,MW,1.410174
Arley,10/11/2023 03:10:00,MW,1.404876
Arley,10/11/2023 03:15:00,MW,1.3644998
Arley,10/11/2023 03:20:00,MW,1.3733618
Arley,10/11/2023 03:25:00,MW,1.3628442
Arley,10/11/2023 03:30:00,MW,1.3798629
Arley,10/11/2023 03:35:00,MW,1.3777491
Arley,10/11/2023 03:40:00,MW,1.4033167
Arley,10/11/2023 03:45:00,MW,1.3834132
Arley,10/11/2023 03:50:00,MW,1.4101135
Arley,10/11/2023 03:55:00,MW,1.3997267
Arley,10/11/2023 04:00:00,MW,1.417149
Arley,10/11/2023 04:05:00,MW,1.4061285
Arley,10/11/2023 04:10:00,MW,1.3948138
Arley,10/11/2023 04:15:00,MW,1.3804003
Arley,10/11/2023 04:20:00,MW,1.3822148
Arley,10/11/2023 04:25:00,MW,1.4131382
Arley,10/11/2023 04:30:00,MW,1.4220859
Arley,10/11/2023 04:35:00,MW,1.4432876
Arley,10/11/2023 04:40:00,MW,1.4066322
Arley,10/11/2023 04:45:00,MW,1.3847787
Arley,10/11/2023 04:50:00,MW,1.4155291
Arley,10/11/2023 04:55:00,MW,1.4352713
Arley,10/11/2023 05:00:00,MW,1.4691741
Arley,10/11/2023 05:05:00,MW,1.5094976
Arley,10/11/2023 05:10:00,MW,1.5128685
Arley,10/11/2023 05:15:00,MW,1.5532881
Arley,10/11/2023 05:20:00,MW,1.5417111
Arley,10/11/2023 05:25:00,MW,1.5290042
Arley,10/11/2023 05:30:00,MW,1.5740432
Arley,10/11/2023 05:35:00,MW,1.5877503
Arley,10/11/2023 05:40:00,MW,1.6224588
Arley,10/11/2023 05:45:00,MW,1.6233771
Arley,10/11/2023 05:50:00,MW,1.6625662
Arley,10/11/2023 05:55:00,MW,1.6246405
Arley,10/11/2023 06:00:00,MW,1.6755587
Arley,10/11/2023 06:05:00,MW,1.7444587
Arley,10/11/2023 06:10:00,MW,1.7632285
Arley,10/11/2023 06:15:00,MW,1.7947996
Arley,10/11/2023 06:20:00,MW,1.8056217
Arley,10/11/2023 06:25:00,MW,1.8575685
Arley,10/11/2023 06:30:00,MW,1.8813643
Arley,10/11/2023 06:35:00,MW,1.9554679
Arley,10/11/2023 06:40:00,MW,2.002755
Arley,10/11/2023 06:45:00,MW,2.006613
Arley,10/11/2023 06:50:00,MW,2.0418174
Arley,10/11/2023 06:55:00,MW,1.9976358
Arley,10/11/2023 07:00:00,MW,2.1386228
Arley,10/11/2023 07:05:00,MW,2.1371179
Arley,10/11/2023 07:10:00,MW,2.2507274
Arley,10/11/2023 07:15:00,MW,2.206344
Arley,10/11/2023 07:20:00,MW,2.2500339
Arley,10/11/2023 07:25:00,MW,2.2120078
Arley,10/11/2023 07:30:00,MW,2.2890875
Arley,10/11/2023 07:35:00,MW,2.3300235
Arley,10/11/2023 07:40:00,MW,2.4092548
Arley,10/11/2023 07:45:00,MW,2.3821146
Arley,10/11/2023 07:50:00,MW,2.2366092
Arley,10/11/2023 07:55:00,MW,2.2704985
Arley,10/11/2023 08:00:00,MW,2.226503
Arley,10/11/2023 08:05:00,MW,2.1679435
Arley,10/11/2023 08:10:00,MW,2.2285278
Arley,10/11/2023 08:15:00,MW,2.30382
Arley,10/11/2023 08:20:00,MW,2.354779
Arley,10/11/2023 08:25:00,MW,2.3286793
Arley,10/11/2023 08:30:00,MW,2.3013792
Arley,10/11/2023 08:35:00,MW,2.2626648
Arley,10/11/2023 08:40:00,MW,2.3141115
Arley,10/11/2023 08:45:00,MW,2.370077
Arley,10/11/2023 08:50:00,MW,2.431814
Arley,10/11/2023 08:55:00,MW,2.3495295
Arley,10/11/2023 09:00:00,MW,2.3852592
Arley,10/11/2023 09:05:00,MW,2.4676185
Arley,10/11/2023 09:10:00,MW,2.4458992
Arley,10/11/2023 09:15:00,MW,2.4573514
Arley,10/11/2023 09:20:00,MW,2.3764741
Arley,10/11/2023 09:25:00,MW,2.3677688
Arley,10/11/2023 09:30:00,MW,2.4498436
Arley,10/11/2023 09:35:00,MW,2.490853
Arley,10/11/2023 09:40:00,MW,2.3796997
Arley,10/11/2023 09:45:00,MW,2.4389381
Arley,10/11/2023 09:50:00,MW,2.4142988
Arley,10/11/2023 09:55:00,MW,2.4959278
Arley,10/11/2023 10:00:00,MW,2.3908916
Arley,10/11/2023 10:05:00,MW,2.4040506
Arley,10/11/2023 10:10:00,MW,2.285811
Arley,10/11/2023 10:15:00,MW,2.3292305
Arley,10/11/2023 10:20:00,MW,2.3796096
Arley,10/11/2023 10:25:00,MW,2.394175
Arley,10/11/2023 10:30:00,MW,2.3773098
Arley,10/11/2023 10:35:00,MW,2.3547747
Arley,10/11/2023 10:40:00,MW,2.362573
Arley,10/11/2023 10:45:00,MW,2.2596188
Arley,10/11/2023 10:50:00,MW,2.301458
Arley,10/11/2023 10:55:00,MW,2.2328975
Arley,10/11/2023 11:00:00,MW,2.309627
Arley,10/11/2023 11:05:00,MW,2.291889
Arley,10/11/2023 11:10:00,MW,2.2901182
Arley,10/11/2023 11:15:00,MW,2.2966187
Arley,10/11/2023 11:20:00,MW,2.2917528
Arley,10/11/2023 11:25:00,MW,2.3440397
Arley,10/11/2023 11:30:00,MW,2.3312674
Arley,10/11/2023 11:35:00,MW,2.3635201
Arley,10/11/2023 11:40:00,MW,2.3696373
Arley,10/11/2023 11:45:00,MW,2.3890865
Arley,10/11/2023 11:50:00,MW,2.3522117
Arley,10/11/2023 11:55:00,MW,2.3118446
Arley,10/11/2023 12:00:00,MW,2.3565707
Arley,10/11/2023 12:05:00,MW,2.4177184
Arley,10/11/2023 12:10:00,MW,2.4258616
Arley,10/11/2023 12:15:00,MW,2.4334524
Arley,10/11/2023 12:20:00,MW,2.4235606
Arley,10/11/2023 12:25:00,MW,2.496934
Arley,10/11/2023 12:30:00,MW,2.5566578
Arley,10/11/2023 12:35:00,MW,2.495174
Arley,10/11/2023 12:40:00,MW,2.5149708
Arley,10/11/2023 12:45:00,MW,2.5902507
Arley,10/11/2023 12:50:00,MW,2.5575237
Arley,10/11/2023 12:55:00,MW,2.6029754
Arley,10/11/2023 13:00:00,MW,2.6289995
Arley,10/11/2023 13:05:00,MW,2.5134592
Arley,10/11/2023 13:10:00,MW,2.4987354
Arley,10/11/2023 13:15:00,MW,2.5651968
Arley,10/11/2023 13:20:00,MW,2.5323865
Arley,10/11/2023 13:25:00,MW,2.473722
Arley,10/11/2023 13:30:00,MW,2.4433336
Arley,10/11/2023 13:35:00,MW,2.403976
Arley,10/11/2023 13:40:00,MW,2.4516146
Arley,10/11/2023 13:45:00,MW,2.4000661
Arley,10/11/2023 13:50:00,MW,2.444384
Arley,10/11/2023 13:55:00,MW,2.306385
Arley,10/11/2023 14:00:00,MW,2.4489763
Arley,10/11/2023 14:05:00,MW,2.4888566
Arley,10/11/2023 14:10:00,MW,2.4941785
Arley,10/11/2023 14:15:00,MW,2.5132148
Arley,10/11/2023 14:20:00,MW,2.5212564
Arley,10/11/2023 14:25:00,MW,2.604318
Arley,10/11/2023 14:30:00,MW,2.6024673
Arley,10/11/2023 14:35:00,MW,2.6030443
Arley,10/11/2023 14:40:00,MW,2.5524225
Arley,10/11/2023 14:45:00,MW,2.501456
Arley,10/11/2023 14:50:00,MW,2.4391415
Arley,10/11/2023 14:55:00,MW,2.390597
Arley,10/11/2023 15:00:00,MW,2.3495846
Arley,10/11/2023 15:05:00,MW,2.3483095
Arley,10/11/2023 15:10:00,MW,2.360004
Arley,10/11/2023 15:15:00,MW,2.419026
Arley,10/11/2023 15:20:00,MW,2.3935132
Arley,10/11/2023 15:25:00,MW,2.5207243
Arley,10/11/2023 15:30:00,MW,2.5495484
Arley,10/11/2023 15:35:00,MW,2.586497
Arley,10/11/2023 15:40:00,MW,2.5920434
Arley,10/11/2023 15:45:00,MW,2.5954
Arley,10/11/2023 15:50:00,MW,2.5979803
Arley,10/11/2023 15:55:00,MW,2.664953
Arley,10/11/2023 16:00:00,MW,2.710812
Arley,10/11/2023 16:05:00,MW,2.6377263
Arley,10/11/2023 16:10:00,MW,2.6902225
Arley,10/11/2023 16:15:00,MW,2.6912272
Arley,10/11/2023 16:20:00,MW,2.7063625
Arley,10/11/2023 16:25:00,MW,2.7398863
Arley,10/11/2023 16:30:00,MW,2.7350776
Arley,10/11/2023 16:35:00,MW,2.7719173
Arley,10/11/2023 16:40:00,MW,2.7897782
Arley,10/11/2023 16:45:00,MW,2.7165534
Arley,10/11/2023 16:50:00,MW,2.7646964
Arley,10/11/2023 16:55:00,MW,2.8021588
Arley,10/11/2023 17:00:00,MW,2.8765347
Arley,10/11/2023 17:05:00,MW,2.9488723
Arley,10/11/2023 17:10:00,MW,2.8734653
Arley,10/11/2023 17:15:00,MW,2.8652225
Arley,10/11/2023 17:20:00,MW,2.8712742
Arley,10/11/2023 17:25:00,MW,2.9843836
Arley,10/11/2023 17:30:00,MW,2.9144862
Arley,10/11/2023 17:35:00,MW,2.9184015
Arley,10/11/2023 17:40:00,MW,3.019095
Arley,10/11/2023 17:45:00,MW,3.0233462
Arley,10/11/2023 17:50:00,MW,3.0555649
Arley,10/11/2023 17:55:00,MW,3.0276651
Arley,10/11/2023 18:00:00,MW,2.9729986
Arley,10/11/2023 18:05:00,MW,2.9258537
Arley,10/11/2023 18:10:00,MW,2.8398201
Arley,10/11/2023 18:15:00,MW,2.838393
Arley,10/11/2023 18:20:00,MW,2.7830215
Arley,10/11/2023 18:25:00,MW,2.778946
Arley,10/11/2023 18:30:00,MW,2.8905113
Arley,10/11/2023 18:35:00,MW,2.873566
Arley,10/11/2023 18:40:00,MW,2.8184993
Arley,10/11/2023 18:45:00,MW,2.807225
Arley,10/11/2023 18:50:00,MW,2.8243961
Arley,10/11/2023 18:55:00,MW,2.8986168
Arley,10/11/2023 19:00:00,MW,2.7306914
Arley,10/11/2023 19:05:00,MW,2.69431
Arley,10/11/2023 19:10:00,MW,2.6668584
Arley,10/11/2023 19:15:00,MW,2.5686226
Arley,10/11/2023 19:20:00,MW,2.5901775
Arley,10/11/2023 19:25:00,MW,2.5515983
Arley,10/11/2023 19:30:00,MW,2.5885022
Arley,10/11/2023 19:35:00,MW,2.5416362
Arley,10/11/2023 19:40:00,MW,2.4256964
Arley,10/11/2023 19:45:00,MW,2.4824958
Arley,10/11/2023 19:50:00,MW,2.514235
Arley,10/11/2023 19:55:00,MW,2.5139365
Arley,10/11/2023 20:00:00,MW,2.513209
Arley,10/11/2023 20:05:00,MW,2.4423797
Arley,10/11/2023 20:10:00,MW,2.4299393
Arley,10/11/2023 20:15:00,MW,2.350199
Arley,10/11/2023 20:20:00,MW,2.297064
Arley,10/11/2023 20:25:00,MW,2.3052464
Arley,10/11/2023 20:30:00,MW,2.2495248
Arley,10/11/2023 20:35:00,MW,2.2460227
Arley,10/11/2023 20:40:00,MW,2.2455258
Arley,10/11/2023 20:45:00,MW,2.2275727
Arley,10/11/2023 20:50:00,MW,2.2018702
Arley,10/11/2023 20:55:00,MW,2.1777651
Arley,10/11/2023 21:00:00,MW,2.1817644
Arley,10/11/2023 21:05:00,MW,2.1825793
Arley,10/11/2023 21:10:00,MW,2.1164787
Arley,10/11/2023 21:15:00,MW,2.0935488
Arley,10/11/2023 21:20:00,MW,2.0572743
Arley,10/11/2023 21:25:00,MW,2.0428123
Arley,10/11/2023 21:30:00,MW,2.0072737
Arley,10/11/2023 21:35:00,MW,1.9864156
Arley,10/11/2023 21:40:00,MW,1.9643751
Arley,10/11/2023 21:45:00,MW,1.9357122
Arley,10/11/2023 21:50:00,MW,1.9340729
Arley,10/11/2023 21:55:00,MW,1.9003863
Arley,10/11/2023 22:00:00,MW,1.9197649
Arley,10/11/2023 22:05:00,MW,1.8792572
Arley,10/11/2023 22:10:00,MW,1.8341572
Arley,10/11/2023 22:15:00,MW,1.8508027
Arley,10/11/2023 22:20:00,MW,1.8197374
Arley,10/11/2023 22:25:00,MW,1.8104664
Arley,10/11/2023 22:30:00,MW,1.8115269
Arley,10/11/2023 22:35:00,MW,1.762731
Arley,10/11/2023 22:40:00,MW,1.7616719
Arley,10/11/2023 22:45:00,MW,1.7494118
Arley,10/11/2023 22:50:00,MW,1.7438133
Arley,10/11/2023 22:55:00,MW,1.7580041
Arley,10/11/2023 23:00:00,MW,1.7794741
Arley,10/11/2023 23:05:00,MW,1.758201
Arley,10/11/2023 23:10:00,MW,1.7473987
Arley,10/11/2023 23:15:00,MW,1.700895
Arley,10/11/2023 23:20:00,MW,1.6559267
Arley,10/11/2023 23:25:00,MW,1.5837883
Arley,10/11/2023 23:30:00,MW,1.5971432
Arley,10/11/2023 23:35:00,MW,1.5923163
Arley,10/11/2023 23:40:00,MW,1.5763158
Arley,10/11/2023 23:45:00,MW,1.5884132
Arley,10/11/2023 23:50:00,MW,1.5810574
Arley,10/11/2023 23:55:00,MW,1.6043773
